Regional Weather Roundup
Issued by NWS

Home | Current Version | Previous Version | Graphics & Text | Print | Product List | Glossary Off
Versions: 1 2 3 4 5 6 7 8 9 10 11 12 13 14 15 16 17 18 19 20 21 22 23 24 25 26 27 28 29 30 31 32 33 34 35 36 37 38 39 40 41 42 43 44 45 46 47 48 49 50

660
ASUS43 KMKX 171000
RWRWI

WISCONSIN REGIONAL WEATHER ROUNDUP
NATIONAL WEATHER SERVICE MILWAUKEE/SULLIVAN WI
500 AM CDT TUE OCT 17 2017

NOTE: "FAIR" INDICATES FEW OR NO CLOUDS BELOW 12,000 FEET WITH NO
SIGNIFICANT WEATHER AND/OR OBSTRUCTIONS TO VISIBILITY.

WIZ001-002-006>008-014>016-023>028-171100-
NORTHWEST WISCONSIN

CITY           SKY/WX    TMP DP  RH WIND       PRES   REMARKS
SUPERIOR ARPT  CLOUDY    44  38  82 SW7       29.92S
ASHLAND        CLEAR     49  38  65 SW10      29.93R
HAYWARD        CLEAR     36  33  89 CALM      29.97R
SIREN          CLEAR     40  36  85 CALM      29.96R
CUMBERLAND     CLEAR     39  34  81 S3        29.97R
RICE LAKE      CLEAR     38  37  97 CALM      29.99R
CHETEK         CLEAR     37  37  99 CALM      29.97S
LADYSMITH      CLOUDY    38  35  88 CALM      29.99R
EAU CLAIRE     NOT AVBL
MENOMONIE      CLEAR     43  39  87 CALM      29.99R
NEW RICHMOND   CLEAR     44  37  77 CALM      29.98R
OSCEOLA        CLEAR     38  38 100 CALM      30.00R
$$

WIZ003>005-009-010-017-018-171100-
NORTH CENTRAL WISCONSIN

CITY           SKY/WX    TMP DP  RH WIND       PRES   REMARKS
MANITOWISH WTR CLEAR     43  36  76 SW3       29.94S
ARBOR VITAE    CLOUDY    39  37  91 CALM      29.95R
WOODRUFF       CLOUDY    39  37  91 CALM      29.95R
RHINELANDER    CLOUDY    43  37  79 W6        29.97R
EAGLE RIVER    CLOUDY    41  34  74 CALM      29.95R
LAND O LAKES   CLOUDY    36  34  93 CALM      29.96R
PHILLIPS       CLEAR     40  35  84 CALM      29.96S
TOMAHAWK       CLOUDY    37  34  90 CALM      29.97S
MEDFORD        CLOUDY    42  36  78 SW5       29.98S
MERRILL        CLOUDY    38  35  87 CALM      29.98S
$$

WIZ029-030-035-036-043>047-171100-
CENTRAL WISCONSIN

CITY           SKY/WX    TMP DP  RH WIND       PRES   REMARKS
WAUSAU         CLOUDY    46  37  71 SW5       29.99R
MOSINEE        CLOUDY    41  36  81 S6        30.00S
MARSHFIELD     CLEAR     45  36  70 SW6       30.00R
STEVENS POINT  CLEAR     40  35  82 S5        30.01S
WAUPACA        CLEAR     47  38  71 SW3       30.02R
WAUTOMA        CLEAR     36  35  96 CALM      30.04S
WISC RAPIDS    CLEAR     47  39  74 SW6       30.02R
CAMP DOUGLAS   NOT AVBL
$$

WIZ011>013-019>022-031-037>040-048>050-171100-
NORTHEAST WISCONSIN

CITY           SKY/WX    TMP DP  RH WIND       PRES   REMARKS
ANTIGO         CLOUDY    42  36  80 SW7       29.98S
SHAWANO        CLOUDY    48  38  66 SW3       29.99S
OCONTO         CLEAR     49  37  64 SW8       29.98S
STURGEON BAY   CLEAR     55  39  54 SW15G24   29.98R
GREEN BAY      CLEAR     51  40  65 SW8       30.01S
MANITOWOC      CLEAR     54  38  54 SW14G20   30.02S
APPLETON       CLEAR     46  34  61 SW12      30.00S
CLINTONVILLE   NOT AVBL
OSHKOSH        CLEAR     49  39  68 SW14G22   30.02S
$$

WIZ032>034-041-042-053>061-171100-
SOUTHWEST WISCONSIN

CITY           SKY/WX    TMP DP  RH WIND       PRES   REMARKS
LA CROSSE      CLEAR     52  42  69 CALM      30.03S
SPARTA         CLEAR     51  40  66 SW3       30.03F
VIROQUA        CLEAR     51  41  69 CALM      30.06R
BOSCOBEL       CLEAR     46  40  79 SW3       30.08S
PRAIRIE DU CHI CLEAR     54  38  55 S3        30.08S
PLATTEVILLE    CLOUDY    47  41  77 S8        30.12S
$$

WIZ056-057-062-063-064-067-068-171100-
SOUTH CENTRAL WISCONSIN

CITY           SKY/WX    TMP DP  RH WIND       PRES   REMARKS
REEDSBURG      CLEAR     52  38  60 W5        30.06R
BARABOO/DELLS  CLEAR     51  37  58 SW9       30.06R
LONE ROCK      NOT AVBL
MINERAL POINT  CLEAR     48  41  76 S7        30.10S
MADISON        CLEAR     52  39  61 SW8       30.08F
MIDDLETON      CLEAR     52  38  58 SW10G16   30.09S
WATERTOWN      CLEAR     47  40  75 SW8       30.09S
MONROE         CLEAR     45  37  76 SW16      30.12S
JANESVILLE     CLEAR     48  37  66 SW10      30.13S
$$

WIZ051-052-058>065-066-070>072-171100-
SOUTHEAST WISCONSIN

CITY           SKY/WX    TMP DP  RH WIND       PRES   REMARKS
MILWAUKEE      PTCLDY    50  38  63 SW13      30.11F
WAUKESHA       CLEAR     46  36  66 S5        30.12F
MILWAUKEE/TIMM CLEAR     50  34  53 SW9       30.11S
RACINE         CLEAR     51  38  60 SW12      30.14S
BURLINGTON     CLEAR     47  40  77 SW9       30.13F
KENOSHA        CLEAR     50  38  63 SW10      30.14S
FOND DU LAC    CLEAR     50  37  61 SW13G22   30.04S
SHEBOYGAN      CLEAR     53  39  59 SW12G21   30.04F
WEST BEND      CLEAR     54  36  50 SW14G20   30.07F
JUNEAU         CLEAR     47  38  71 S8        30.09S
$$

LSZ147-162-171100-
LAKE SUPERIOR

STATION/POSITION TIME  TEMP    WIND        PRES    WAVE
                       AIR SEA DIR/SP/G            HT/PER
                 (UTC) (F)     (DEG/KT/KT) (MB)    (FT/S)
W MID LAKE BUOY  0850   54 53              1010.7S   3/ 5
DEVILS ISLAND    0900   56     240/ 19/ 21 1012.0R
SAXON HARBOR     0940   51     200/  8/ 11 1012.5S
$$

LMZ867-665-643>646-171100-
LAKE MICHIGAN

STATION/POSITION TIME  TEMP    WIND        PRES    WAVE
                       AIR SEA DIR/SP/G            HT/PER
                 (UTC) (F)     (DEG/KT/KT) (MB)    (FT/S)
S GREEN BAY BUOY 0930   56 58  210/ 21/ 23 1014.7S
N MID LAKE BUOY  0850   59 60  210/ 23/ 31 1014.3F   6/ 7
NORTHPORT PIER   0940   56     240/  8/ 23 1014.2R
KEWAUNEE LAKESHO 0930   54     240/ 10/ 14 1014.8F
SHEBOYGAN LAKESH 0900   56     230/ 13/ 16 1017.3F
PORT WASHINGTON  0940   56     250/  9/ 16 1019.0F
MILWAUKEE LAKESH 0950   52     240/ 13/ 15   N/A
S MID LAKE BUOY  0850   60 62  240/ 19/ 23 1021.1F   4/ 5
KENOSHA   LAKESH 0900   53     230/ 10/ 17 1020.7
$$

TC  - TEMPERATURE IN CELSIUS
VSB - VISIBILITY IN STATUTE MILES
WCI - WIND CHILL INDEX
HX  - HEAT INDEX





USA.gov is the U.S. government's official web portal to all federal, state and local government web resources and services.